Du Bois, PA

7:38 AM EDT on September 24, 2017 (GMT -0400)
Du Bois-Jefferson County

Weather History for KDUJ - November, 2013

Change the Weather History Date:

Thursday, November 21, 2013

  Actual Average Record
Temperature  
Mean Temperature 38 °F 37 °F  
Max Temperature 44 °F 44 °F 62 °F (1991)
Min Temperature 31 °F 30 °F 12 °F (1964)
Degree Days  
Heating Degree Days 27 28  
Month to date heating degree days 509 506  
Since 1 July heating degree days 1069 1249  
Cooling Degree Days 0 0  
Month to date cooling degree days 0 0  
Year to date cooling degree days 543 362  
Moisture  
Dew Point 27 °F    
Average Humidity 58    
Maximum Humidity 75    
Minimum Humidity 41    
Precipitation  
Precipitation 0.01 in 0.13 in 0.55 in (1992)
Month to date precipitation 2.33 2.56  
Sea Level Pressure  
Sea Level Pressure 30.39 in    
Wind  
Wind Speed 9 mph (SE)    
Max Wind Speed 14 mph    
Max Gust Speed 18 mph    
Visibility 10 miles    
Events Rain    
T = Trace of Precipitation, MM = Missing Value Source: NWS Daily Summary

Daily Weather History Graph

Daily Weather History Graph

Search for Another Location

Airport or City:

Trip Planner

Search our weather history database for the weather conditions in past years. The results will help you decide how hot, cold, wet, or windy it might be!

Date:

Astronomy

Nov. 21, 2013 Rise Set
Actual Time 7:10 AM EST 4:51 PM EST
Civil Twilight 6:40 AM EST 5:21 PM EST
Nautical Twilight 6:07 AM EST 5:55 PM EST
Astronomical Twilight 5:34 AM EST 6:28 PM EST
Moon 8:27 PM EST (11/21) 10:15 AM EST (11/21)
Length of Visible Light 10h 41m
Length of Day
9h 41m
Waning Gibbous, 85% of the Moon is Illuminated
Nov 21
Waning Gibbous
Nov 25
Last Quarter
Dec 2
New
Dec 9
First Quarter
Dec 17
Full

Hourly Weather History & Observations

Time (EST) Temp. Windchill Dew Point Humidity Pressure Visibility Wind Dir Wind Speed Gust Speed Precip Events Conditions
12:56 AM 32.0 °F 23.0 °F 12.0 °F 44% 30.44 in 10.0 mi ESE 11.5 mph - N/A   Clear
1:56 AM 32.0 °F 23.6 °F 14.0 °F 48% 30.44 in 10.0 mi ESE 10.4 mph - N/A   Clear
2:56 AM 32.0 °F 23.0 °F 17.1 °F 54% 30.45 in 10.0 mi SE 11.5 mph - N/A   Clear
3:56 AM 32.0 °F 23.0 °F 19.0 °F 59% 30.45 in 10.0 mi SE 11.5 mph - N/A   Clear
4:56 AM 32.0 °F 23.0 °F 21.9 °F 66% 30.45 in 10.0 mi SE 11.5 mph - N/A   Clear
5:56 AM 32.0 °F 24.2 °F 24.1 °F 73% 30.45 in 10.0 mi SE 9.2 mph - N/A   Clear
6:56 AM 32.0 °F 24.2 °F 25.0 °F 75% 30.46 in 10.0 mi ESE 9.2 mph - N/A   Clear
7:56 AM 33.1 °F 25.5 °F 26.1 °F 75% 30.47 in 10.0 mi SE 9.2 mph - N/A   Clear
8:56 AM 36.0 °F 29.0 °F 27.0 °F 70% 30.46 in 10.0 mi SE 9.2 mph - N/A   Scattered Clouds
9:56 AM 37.0 °F 29.8 °F 27.0 °F 67% 30.44 in 10.0 mi SE 10.4 mph - N/A   Mostly Cloudy
10:56 AM 37.0 °F 29.3 °F 28.0 °F 70% 30.43 in 10.0 mi SE 11.5 mph - N/A   Overcast
11:56 AM 41.0 °F 36.4 °F 28.9 °F 62% 30.41 in 10.0 mi SE 6.9 mph - N/A   Overcast
12:56 PM 42.1 °F 37.1 °F 28.9 °F 60% 30.39 in 10.0 mi SE 8.1 mph - N/A   Overcast
1:56 PM 43.0 °F 38.8 °F 30.0 °F 60% 30.38 in 10.0 mi SE 6.9 mph - N/A   Overcast
2:56 PM 43.0 °F 38.8 °F 28.9 °F 58% 30.37 in 10.0 mi ESE 6.9 mph - N/A   Overcast
3:56 PM 43.0 °F 39.5 °F 30.0 °F 60% 30.36 in 10.0 mi ESE 5.8 mph - N/A   Overcast
4:56 PM 42.1 °F 37.7 °F 30.9 °F 65% 30.36 in 10.0 mi ESE 6.9 mph - N/A   Overcast
5:56 PM 42.1 °F 37.1 °F 30.9 °F 65% 30.36 in 10.0 mi ESE 8.1 mph - N/A   Overcast
6:56 PM 43.0 °F 38.2 °F 30.9 °F 62% 30.35 in 10.0 mi SE 8.1 mph - N/A   Overcast
7:56 PM 42.1 °F 36.6 °F 32.0 °F 67% 30.34 in 10.0 mi ESE 9.2 mph - N/A   Overcast
8:56 PM 42.1 °F 36.6 °F 32.0 °F 67% 30.32 in 10.0 mi ESE 9.2 mph - N/A   Overcast
9:56 PM 43.0 °F 37.7 °F 33.1 °F 68% 30.30 in 10.0 mi ESE 9.2 mph - N/A   Overcast
10:54 PM 42.8 °F 38.0 °F 33.8 °F 70% 30.25 in 10.0 mi ESE 8.1 mph - N/A   Overcast
10:56 PM 43.0 °F 38.2 °F 33.1 °F 68% 30.29 in 10.0 mi ESE 8.1 mph - N/A   Overcast
11:56 PM 42.1 °F 37.7 °F 35.1 °F 76% 30.27 in 10.0 mi ESE 6.9 mph - 0.01 in Rain Light Rain